Location: Newark
(34.6283°N, 36.0776°E)
Time: 20:47:50
(UTC+00:00)

Tiros 1 despin weight - Pass Details

Date: 21 September 2019
Orbit: 594 x 643 km, 48.2° (Epoch: 12 October)

Event Time Altitude Azimuth Distance (km) Brightness Sun altitude
Rises 09:14:59 0° 241° (WSW) 2,896 ? 56.0°
Reaches altitude 10° 09:17:20 10° 244° (WSW) 1,984 ? 56.0°
Maximum altitude 09:21:51 62° 325° (NW) 693 ? 56.1°
Drops below altitude 10° 09:26:19 10° 47° (NE) 1,959 ? 56.1°
Sets 09:28:37 0° 51° (NE) 2,857 ? 56.1°
